Time,TemperatureF,DewpointF,PressureIn,WindDirection,WindDirectionDegrees,WindSpeedMPH,WindSpeedGustMPH,Humidity,HourlyPrecipIn,Conditions,Clouds,dailyrainin,SoftwareType,DateUTC
2013-06-05 00:02:00,53.0,51.0,30.06,North,8,10.0,15.0,93,0.00,,,0.00,,2013-06-05 07:02:00,
2013-06-05 00:12:00,53.0,51.0,30.06,North,8,10.0,15.0,93,0.00,,,0.00,,2013-06-05 07:12:00,
2013-06-05 00:21:00,53.0,51.0,30.07,NNE,25,8.0,15.0,93,0.00,,,0.00,,2013-06-05 07:21:00,
2013-06-05 00:32:00,53.0,51.0,30.07,NE,52,10.0,14.0,93,0.00,,,0.00,,2013-06-05 07:32:00,
2013-06-05 00:42:00,53.0,51.0,30.07,NE,52,10.0,14.0,93,0.00,,,0.00,,2013-06-05 07:42:00,
2013-06-05 00:52:00,53.0,51.0,30.07,NE,43,10.0,16.0,94,0.00,,,0.00,,2013-06-05 07:52:00,
2013-06-05 01:02:00,53.0,51.0,30.07,NNE,22,10.0,14.0,94,0.00,,,0.00,,2013-06-05 08:02:00,
2013-06-05 01:12:00,53.0,51.0,30.07,NNE,22,10.0,14.0,94,0.00,,,0.00,,2013-06-05 08:12:00,
2013-06-05 01:21:00,53.0,51.0,30.07,NNE,22,10.0,14.0,94,0.00,,,0.00,,2013-06-05 08:21:00,
2013-06-05 01:32:00,53.0,51.0,30.07,NNE,22,9.0,14.0,94,0.00,,,0.00,,2013-06-05 08:32:00,
2013-06-05 01:42:00,53.0,51.0,30.07,NNE,22,9.0,14.0,94,0.00,,,0.00,,2013-06-05 08:42:00,
2013-06-05 01:51:00,53.0,51.0,30.07,NNE,21,9.0,14.0,94,0.00,,,0.00,,2013-06-05 08:51:00,
2013-06-05 02:02:00,53.0,51.0,30.07,NNE,23,9.0,15.0,94,0.00,,,0.00,,2013-06-05 09:02:00,
2013-06-05 02:12:00,53.0,51.0,30.07,NNE,23,9.0,15.0,94,0.00,,,0.00,,2013-06-05 09:12:00,
2013-06-05 02:22:00,53.0,51.0,30.07,NNE,15,9.0,13.0,94,0.00,,,0.00,,2013-06-05 09:22:00,
2013-06-05 02:32:00,52.0,50.0,30.07,NE,40,7.0,14.0,94,0.00,,,0.00,,2013-06-05 09:32:00,
2013-06-05 02:42:00,52.0,50.0,30.07,NE,40,7.0,14.0,94,0.00,,,0.00,,2013-06-05 09:42:00,
2013-06-05 02:52:00,52.0,50.0,30.07,NNE,33,7.0,11.0,94,0.00,,,0.00,,2013-06-05 09:52:00,
2013-06-05 03:02:00,52.0,50.0,30.07,NNE,33,5.0,11.0,94,0.00,,,0.00,,2013-06-05 10:02:00,
2013-06-05 03:12:00,52.0,50.0,30.07,NNE,33,5.0,11.0,94,0.00,,,0.00,,2013-06-05 10:12:00,
2013-06-05 03:22:00,52.0,50.0,30.06,NNE,16,5.0,9.0,94,0.00,,,0.00,,2013-06-05 10:22:00,
2013-06-05 03:33:00,51.0,49.0,30.06,NNE,25,5.0,9.0,94,0.00,,,0.00,,2013-06-05 10:33:00,
2013-06-05 03:42:00,51.0,49.0,30.06,NNE,25,5.0,9.0,94,0.00,,,0.00,,2013-06-05 10:42:00,
2013-06-05 03:52:00,51.0,49.0,30.05,NNE,26,3.0,8.0,94,0.00,,,0.00,,2013-06-05 10:52:00,
2013-06-05 04:02:00,51.0,49.0,30.05,North,353,2.0,3.0,93,0.00,,,0.00,,2013-06-05 11:02:00,
2013-06-05 04:12:00,51.0,49.0,30.05,North,353,2.0,3.0,93,0.00,,,0.00,,2013-06-05 11:12:00,
2013-06-05 04:22:00,50.0,48.0,30.05,NE,44,1.0,4.0,94,0.00,,,0.00,,2013-06-05 11:22:00,
2013-06-05 04:32:00,49.0,47.0,30.06,NE,44,0.0,0.0,94,0.00,,,0.00,,2013-06-05 11:32:00,
2013-06-05 04:42:00,49.0,47.0,30.06,NE,44,0.0,0.0,94,0.00,,,0.00,,2013-06-05 11:42:00,
2013-06-05 04:52:00,49.0,47.0,30.06,North,354,2.0,5.0,94,0.00,,,0.00,,2013-06-05 11:52:00,
2013-06-05 05:02:00,48.0,46.0,30.07,NNE,23,5.0,7.0,94,0.00,,,0.00,,2013-06-05 12:02:00,
2013-06-05 05:12:00,48.0,46.0,30.07,NNE,23,5.0,7.0,94,0.00,,,0.00,,2013-06-05 12:12:00,
2013-06-05 05:22:00,49.0,48.0,30.08,NNE,13,6.0,9.0,95,0.00,,,0.00,,2013-06-05 12:22:00,
2013-06-05 05:32:00,51.0,50.0,30.08,NNE,19,8.0,11.0,95,0.00,,,0.00,,2013-06-05 12:32:00,
2013-06-05 05:43:00,51.0,50.0,30.08,NNE,19,8.0,11.0,95,0.00,,,0.00,,2013-06-05 12:43:00,
2013-06-05 05:52:00,52.0,51.0,30.08,NNE,32,13.0,18.0,95,0.00,,,0.00,,2013-06-05 12:52:00,
2013-06-05 06:02:00,52.0,51.0,30.08,NNE,17,11.0,16.0,95,0.00,,,0.00,,2013-06-05 13:02:00,
2013-06-05 06:12:00,52.0,51.0,30.08,NNE,17,11.0,16.0,95,0.00,,,0.00,,2013-06-05 13:12:00,
2013-06-05 06:22:00,52.0,51.0,30.09,NNE,29,8.0,17.0,95,0.00,,,0.00,,2013-06-05 13:22:00,
2013-06-05 06:32:00,52.0,51.0,30.09,NNE,21,10.0,18.0,95,0.00,,,0.00,,2013-06-05 13:32:00,
2013-06-05 06:42:00,52.0,51.0,30.09,NNE,21,10.0,18.0,95,0.00,,,0.00,,2013-06-05 13:42:00,
2013-06-05 06:52:00,52.0,51.0,30.09,NNE,27,9.0,15.0,95,0.00,,,0.00,,2013-06-05 13:52:00,
2013-06-05 07:02:00,52.0,51.0,30.09,NNE,20,9.0,14.0,95,0.00,,,0.00,,2013-06-05 14:02:00,
2013-06-05 07:12:00,52.0,51.0,30.09,NNE,20,9.0,14.0,95,0.00,,,0.00,,2013-06-05 14:12:00,
2013-06-05 07:22:00,52.0,51.0,30.09,NNE,13,5.0,11.0,95,0.00,,,0.00,,2013-06-05 14:22:00,
2013-06-05 07:32:00,53.0,52.0,30.09,North,3,9.0,12.0,96,0.00,,,0.00,,2013-06-05 14:32:00,
2013-06-05 07:42:00,53.0,52.0,30.09,North,3,9.0,12.0,96,0.00,,,0.00,,2013-06-05 14:42:00,
2013-06-05 07:52:00,52.0,51.0,30.10,NNE,12,11.0,15.0,95,0.00,,,0.00,,2013-06-05 14:52:00,
2013-06-05 08:02:00,53.0,52.0,30.10,NNE,28,10.0,15.0,95,0.00,,,0.00,,2013-06-05 15:02:00,
2013-06-05 08:12:00,53.0,52.0,30.10,NNE,28,10.0,15.0,95,0.00,,,0.00,,2013-06-05 15:12:00,
2013-06-05 08:22:00,53.0,52.0,30.11,North,356,6.0,11.0,95,0.00,,,0.00,,2013-06-05 15:22:00,
2013-06-05 08:33:00,53.0,52.0,30.11,North,356,7.0,11.0,95,0.00,,,0.00,,2013-06-05 15:33:00,
2013-06-05 08:42:00,53.0,52.0,30.11,North,356,7.0,11.0,95,0.00,,,0.00,,2013-06-05 15:42:00,
2013-06-05 08:53:00,53.0,52.0,30.11,NNE,15,11.0,15.0,96,0.00,,,0.00,,2013-06-05 15:53:00,
2013-06-05 09:03:00,53.0,52.0,30.12,North,4,11.0,14.0,95,0.00,,,0.00,,2013-06-05 16:03:00,
2013-06-05 09:12:00,53.0,52.0,30.12,North,4,11.0,14.0,95,0.00,,,0.00,,2013-06-05 16:12:00,
2013-06-05 09:22:00,53.0,52.0,30.12,NNE,16,12.0,19.0,95,0.00,,,0.00,,2013-06-05 16:22:00,
2013-06-05 09:32:00,53.0,52.0,30.13,North,4,15.0,18.0,95,0.00,,,0.00,,2013-06-05 16:32:00,
2013-06-05 09:42:00,53.0,52.0,30.13,North,4,15.0,18.0,95,0.00,,,0.00,,2013-06-05 16:42:00,
2013-06-05 09:53:00,53.0,52.0,30.13,North,2,20.0,25.0,95,0.00,,,0.00,,2013-06-05 16:53:00,
2013-06-05 10:02:00,53.0,52.0,30.13,NNE,12,13.0,22.0,95,0.00,,,0.00,,2013-06-05 17:02:00,
2013-06-05 10:12:00,53.0,52.0,30.13,NNE,12,13.0,22.0,95,0.00,,,0.00,,2013-06-05 17:12:00,
2013-06-05 10:22:00,53.0,52.0,30.13,North,3,12.0,16.0,96,0.00,,,0.00,,2013-06-05 17:22:00,
2013-06-05 10:32:00,53.0,52.0,30.13,North,4,14.0,19.0,95,0.00,,,0.00,,2013-06-05 17:32:00,
2013-06-05 10:42:00,53.0,52.0,30.13,North,4,14.0,19.0,95,0.00,,,0.00,,2013-06-05 17:42:00,
2013-06-05 10:52:00,54.0,53.0,30.13,North,2,12.0,17.0,96,0.00,,,0.00,,2013-06-05 17:52:00,
2013-06-05 11:02:00,54.0,53.0,30.13,NNE,31,12.0,17.0,96,0.00,,,0.00,,2013-06-05 18:02:00,
2013-06-05 11:12:00,54.0,53.0,30.13,NNE,31,12.0,17.0,96,0.00,,,0.00,,2013-06-05 18:12:00,
2013-06-05 11:22:00,55.0,54.0,30.13,NNE,15,9.0,16.0,96,0.00,,,0.00,,2013-06-05 18:22:00,
2013-06-05 11:32:00,56.0,55.0,30.13,NNE,18,10.0,16.0,96,0.00,,,0.00,,2013-06-05 18:32:00,
2013-06-05 11:42:00,56.0,55.0,30.13,NNE,18,10.0,16.0,96,0.00,,,0.00,,2013-06-05 18:42:00,
2013-06-05 11:52:00,56.0,55.0,30.13,NNE,17,12.0,17.0,95,0.00,,,0.00,,2013-06-05 18:52:00,
2013-06-05 12:02:00,55.0,53.0,30.13,North,8,11.0,16.0,94,0.00,,,0.00,,2013-06-05 19:02:00,
2013-06-05 12:12:00,55.0,53.0,30.13,North,8,11.0,16.0,94,0.00,,,0.00,,2013-06-05 19:12:00,
2013-06-05 12:23:00,55.0,53.0,30.13,North,8,11.0,16.0,94,0.00,,,0.00,,2013-06-05 19:23:00,
2013-06-05 12:32:00,57.0,55.0,30.13,North,7,12.0,17.0,94,0.00,,,0.00,,2013-06-05 19:32:00,
2013-06-05 12:42:00,57.0,55.0,30.13,North,7,12.0,17.0,94,0.00,,,0.00,,2013-06-05 19:42:00,
2013-06-05 12:52:00,57.0,55.0,30.13,NNE,26,13.0,16.0,93,0.00,,,0.00,,2013-06-05 19:52:00,
2013-06-05 13:02:00,58.0,56.0,30.13,NNE,19,13.0,17.0,92,0.00,,,0.00,,2013-06-05 20:02:00,
2013-06-05 13:12:00,58.0,56.0,30.13,NNE,19,13.0,17.0,92,0.00,,,0.00,,2013-06-05 20:12:00,
2013-06-05 13:22:00,57.0,55.0,30.13,NNE,21,12.0,16.0,92,0.00,,,0.00,,2013-06-05 20:22:00,
2013-06-05 13:32:00,58.0,56.0,30.13,North,2,11.0,16.0,92,0.00,,,0.00,,2013-06-05 20:32:00,
2013-06-05 13:42:00,57.0,54.0,30.13,North,2,13.0,18.0,91,0.00,,,0.00,,2013-06-05 20:42:00,
2013-06-05 13:52:00,57.0,54.0,30.13,North,2,13.0,18.0,91,0.00,,,0.00,,2013-06-05 20:52:00,
2013-06-05 14:02:00,57.0,55.0,30.13,North,9,14.0,22.0,92,0.00,,,0.00,,2013-06-05 21:02:00,
2013-06-05 14:12:00,57.0,55.0,30.13,North,9,14.0,22.0,92,0.00,,,0.00,,2013-06-05 21:12:00,
2013-06-05 14:22:00,57.0,55.0,30.13,North,9,14.0,22.0,92,0.00,,,0.00,,2013-06-05 21:22:00,
2013-06-05 14:33:00,57.0,55.0,30.13,NNE,19,17.0,23.0,92,0.00,,,0.00,,2013-06-05 21:33:00,
2013-06-05 14:43:00,57.0,55.0,30.13,North,11,17.0,23.0,93,0.00,,,0.00,,2013-06-05 21:43:00,
2013-06-05 14:53:00,57.0,55.0,30.13,North,11,17.0,23.0,93,0.00,,,0.00,,2013-06-05 21:53:00,
2013-06-05 15:02:00,57.0,55.0,30.13,North,11,17.0,23.0,93,0.00,,,0.00,,2013-06-05 22:02:00,
2013-06-05 15:12:00,57.0,55.0,30.13,North,11,17.0,23.0,93,0.00,,,0.00,,2013-06-05 22:12:00,
2013-06-05 15:22:00,57.0,55.0,30.12,North,2,20.0,27.0,93,0.00,,,0.00,,2013-06-05 22:22:00,
2013-06-05 15:32:00,57.0,55.0,30.11,North,4,19.0,25.0,93,0.00,,,0.00,,2013-06-05 22:32:00,
2013-06-05 15:42:00,57.0,55.0,30.11,NNE,23,17.0,24.0,93,0.00,,,0.00,,2013-06-05 22:42:00,
2013-06-05 15:52:00,57.0,55.0,30.11,NNE,23,17.0,24.0,93,0.00,,,0.00,,2013-06-05 22:52:00,
2013-06-05 16:02:00,57.0,55.0,30.11,NNE,21,17.0,22.0,93,0.00,,,0.00,,2013-06-05 23:02:00,
2013-06-05 16:12:00,57.0,55.0,30.11,NNE,21,17.0,22.0,93,0.00,,,0.00,,2013-06-05 23:12:00,
2013-06-05 16:22:00,57.0,55.0,30.11,North,2,18.0,25.0,93,0.00,,,0.00,,2013-06-05 23:22:00,
2013-06-05 16:32:00,56.0,54.0,30.10,North,6,16.0,23.0,93,0.00,,,0.00,,2013-06-05 23:32:00,
2013-06-05 16:42:00,56.0,54.0,30.10,North,6,16.0,23.0,93,0.00,,,0.00,,2013-06-05 23:42:00,
2013-06-05 16:52:00,57.0,55.0,30.10,NNE,17,16.0,22.0,93,0.00,,,0.00,,2013-06-05 23:52:00,
2013-06-05 17:02:00,56.0,54.0,30.10,North,1,16.0,22.0,92,0.00,,,0.00,,2013-06-06 00:02:00,
2013-06-05 17:12:00,56.0,54.0,30.10,North,1,16.0,22.0,92,0.00,,,0.00,,2013-06-06 00:12:00,
2013-06-05 17:22:00,56.0,54.0,30.09,NNE,14,17.0,22.0,93,0.00,,,0.00,,2013-06-06 00:22:00,
2013-06-05 17:32:00,56.0,54.0,30.09,NNE,21,18.0,25.0,93,0.00,,,0.00,,2013-06-06 00:32:00,
2013-06-05 17:42:00,56.0,54.0,30.09,NNE,21,18.0,25.0,93,0.00,,,0.00,,2013-06-06 00:42:00,
2013-06-05 17:52:00,56.0,54.0,30.09,North,8,16.0,24.0,93,0.00,,,0.00,,2013-06-06 00:52:00,
2013-06-05 18:02:00,55.0,53.0,30.09,North,5,16.0,23.0,93,0.00,,,0.00,,2013-06-06 01:02:00,
2013-06-05 18:12:00,55.0,53.0,30.09,North,5,16.0,23.0,93,0.00,,,0.00,,2013-06-06 01:12:00,
2013-06-05 18:22:00,55.0,53.0,30.09,North,360,14.0,24.0,94,0.00,,,0.00,,2013-06-06 01:22:00,
2013-06-05 18:32:00,55.0,53.0,30.09,NNE,17,15.0,23.0,94,0.00,,,0.00,,2013-06-06 01:32:00,
2013-06-05 18:42:00,55.0,53.0,30.09,NNE,17,15.0,23.0,94,0.00,,,0.00,,2013-06-06 01:42:00,
2013-06-05 18:52:00,54.0,52.0,30.08,NNE,15,15.0,24.0,94,0.00,,,0.00,,2013-06-06 01:52:00,
2013-06-05 19:02:00,54.0,53.0,30.08,NNE,30,18.0,24.0,95,0.00,,,0.00,,2013-06-06 02:02:00,
2013-06-05 19:12:00,54.0,53.0,30.08,NNE,30,18.0,24.0,95,0.00,,,0.00,,2013-06-06 02:12:00,
2013-06-05 19:22:00,54.0,52.0,30.07,North,8,16.0,24.0,94,0.00,,,0.00,,2013-06-06 02:22:00,
2013-06-05 19:32:00,53.0,52.0,30.07,North,8,16.0,23.0,95,0.00,,,0.00,,2013-06-06 02:32:00,
2013-06-05 19:42:00,53.0,52.0,30.07,North,8,16.0,23.0,95,0.00,,,0.00,,2013-06-06 02:42:00,
2013-06-05 19:52:00,53.0,52.0,30.07,North,8,16.0,23.0,95,0.00,,,0.00,,2013-06-06 02:52:00,
2013-06-05 20:02:00,53.0,52.0,30.07,North,5,14.0,22.0,95,0.00,,,0.00,,2013-06-06 03:02:00,
2013-06-05 20:12:00,53.0,52.0,30.07,North,5,14.0,22.0,95,0.00,,,0.00,,2013-06-06 03:12:00,
2013-06-05 20:22:00,53.0,52.0,30.08,NNE,20,14.0,21.0,95,0.00,,,0.00,,2013-06-06 03:22:00,
2013-06-05 20:33:00,53.0,52.0,30.07,North,10,13.0,21.0,95,0.00,,,0.00,,2013-06-06 03:33:00,
2013-06-05 20:43:00,53.0,52.0,30.07,North,10,13.0,21.0,95,0.00,,,0.00,,2013-06-06 03:43:00,
2013-06-05 20:52:00,52.0,51.0,30.07,North,9,14.0,23.0,95,0.00,,,0.00,,2013-06-06 03:52:00,
2013-06-05 21:02:00,52.0,51.0,30.07,NNE,16,13.0,21.0,96,0.00,,,0.00,,2013-06-06 04:02:00,
2013-06-05 21:13:00,52.0,51.0,30.07,NNE,16,13.0,21.0,96,0.00,,,0.00,,2013-06-06 04:13:00,
2013-06-05 21:23:00,52.0,51.0,30.06,NNE,21,13.0,19.0,95,0.00,,,0.00,,2013-06-06 04:23:00,
2013-06-05 21:33:00,52.0,51.0,30.06,NNE,28,14.0,18.0,96,0.00,,,0.00,,2013-06-06 04:33:00,
2013-06-05 21:42:00,52.0,51.0,30.06,NNE,28,14.0,18.0,96,0.00,,,0.00,,2013-06-06 04:42:00,
2013-06-05 21:52:00,51.0,50.0,30.06,North,10,12.0,19.0,96,0.00,,,0.00,,2013-06-06 04:52:00,
2013-06-05 22:02:00,51.0,50.0,30.07,NNE,19,13.0,19.0,96,0.00,,,0.00,,2013-06-06 05:02:00,
2013-06-05 22:12:00,51.0,50.0,30.07,NNE,19,13.0,19.0,96,0.00,,,0.00,,2013-06-06 05:12:00,
2013-06-05 22:22:00,51.0,50.0,30.07,North,11,13.0,19.0,96,0.00,,,0.00,,2013-06-06 05:22:00,
2013-06-05 22:32:00,51.0,50.0,30.07,NNE,27,11.0,17.0,96,0.00,,,0.00,,2013-06-06 05:32:00,
2013-06-05 22:42:00,51.0,50.0,30.07,NNE,27,11.0,17.0,96,0.00,,,0.00,,2013-06-06 05:42:00,
2013-06-05 22:52:00,51.0,50.0,30.07,North,7,12.0,16.0,96,0.00,,,0.00,,2013-06-06 05:52:00,
2013-06-05 23:02:00,51.0,50.0,30.08,NNE,13,11.0,15.0,96,0.00,,,0.00,,2013-06-06 06:02:00,
2013-06-05 23:12:00,51.0,50.0,30.08,NNE,13,11.0,15.0,96,0.00,,,0.00,,2013-06-06 06:12:00,
2013-06-05 23:22:00,51.0,50.0,30.07,NNE,25,11.0,15.0,96,0.00,,,0.00,,2013-06-06 06:22:00,
2013-06-05 23:32:00,51.0,50.0,30.07,NNE,15,10.0,14.0,96,0.00,,,0.00,,2013-06-06 06:32:00,
2013-06-05 23:42:00,51.0,50.0,30.07,NNE,15,10.0,14.0,96,0.00,,,0.00,,2013-06-06 06:42:00,
2013-06-05 23:52:00,51.0,50.0,30.07,North,9,9.0,16.0,96,0.00,,,0.00,,2013-06-06 06:52:00,